AirNav   Everest Fuels
 
 363 users online  

0LL6 Gord Airport
Sandwich, Illinois, USA

GOING TO SANDWICH?


FAA INFORMATION EFFECTIVE 18 JUNE 2020

Location

FAA Identifier: 0LL6
Lat/Long: 41-41-54.1060N 088-36-27.2780W
41-41.901767N 088-36.454633W
41.6983628,-88.6075772
(estimated)
Elevation: 710 ft. / 216 m (estimated)
Variation: 00W (1985)
From city: 3 miles N of SANDWICH, IL
Time zone: UTC -5 (UTC -6 during Standard Time)
Zip code: 60548

Airport Operations

Airport use: Private use. Permission required prior to landing
Activation date: 09/1975
Control tower: no
ARTCC: CHICAGO CENTER
FSS: KANKAKEE FLIGHT SERVICE STATION
Attendance: UNATNDD
Wind indicator: yes
Segmented circle: no

Airport Communications

WX ASOS at ARR (7 nm NE): PHONE 630-466-5622
WX AWOS-3 at DKB (15 nm N): 119.075 (815-748-2350)
WX AWOS-3 at C09 (18 nm SE): 118.175 (815-941-1815)

Nearby radio navigation aids

VOR radial/distance  VOR name  Freq  Var
JOTr303/15.9JOLIET VOR/DME112.3002E
DPAr223/16.3DUPAGE VOR/DME108.4002E

Airport Services

Runway Information

Runway E/W

Dimensions: 2600 x 70 ft. / 792 x 21 m
Surface: turf
RUNWAY E  RUNWAY W
Traffic pattern: leftleft
Obstructions: plinenone

Airport Ownership and Management from official FAA records

Ownership: Privately-owned
Owner: JAMES F. GORD
RR 1
SANDWICH, IL 60548
Phone 815-786-8117
Manager: JAMES F. GORD
RR 1
SANDWICH, IL 60548
Phone 815-786-8117

Airport Operational Statistics

Aircraft based on the field: 1
Single engine airplanes: 1
    

Additional Remarks

FOR CD CTC CHICAGO APCH AT 847-289-0926.

Instrument Procedures

There are no published instrument procedures at 0LL6.

Some nearby airports with instrument procedures:

KARR - Aurora Municipal Airport (7 nm NE)
KDKB - De Kalb Taylor Municipal Airport (15 nm N)
C09 - Morris Municipal Airport-James R. Washburn Field (18 nm SE)
KDPA - DuPage Airport (20 nm NE)
1C5 - Bolingbrook's Clow International Airport (21 nm E)
 
Loc | Ops | Rwys | IFR | FBO | Links
Com | Nav | Svcs | Stats | Notes
Area around 0LL6 (Gord Airport)
 
Road maps at: MapQuest Bing Google
 
Aerial photo
No photo
 
Sectional chart

 
Airport distance calculator
Flying to Gord Airport? Find the distance to fly.

From to 0LL6

Sunrise and sunset
Times for 10-Jul-2020
 Local
(UTC-5)
 Zulu
(UTC)
Morning civil twilight04:5809:58
Sunrise05:3110:31
Sunset20:2901:29
Evening civil twilight21:0202:02

Current date and time
Zulu (UTC)  10-Jul-2020 06:32:05
Local (UTC-5)  10-Jul-2020 01:32:05
 
METAR
KARR 
7nm NE 
100552Z AUTO 00000KT 10SM FEW095 SCT110 21/21 A2979 RMK AO2 RAE36 SLP081 P0002 60056 T02110211 10283 20211 403330206 58002
KDKB 
15nm N 
100615Z AUTO 00000KT 10SM BKN021 OVC025 21/21 A2980 RMK AO2 T02100210
KC09 
18nm SE 
100620Z AUTO 11003KT 10SM -RA SCT028 BKN060 OVC110 22/21 A2979 RMK AO2 P0001
TAF
KDPA 
21nm NE 
100537Z 1006/1106 VRB05KT P6SM VCSH FEW025 SCT050 BKN100 FM100900 33009KT P6SM -SHRA BKN015 FM101400 34015G24KT P6SM BKN035 FM110100 32009KT P6SM FEW250
NOTAMs
Click for the latest NOTAMs
NOTAMs are issued by the DoD/FAA and will open in a separate window not controlled by AirNav.

 

 
 

Would you like to see your business listed on this page?

 If your business provides an interesting product or service to pilots, flight crews, aircraft, or users of the Gord Airport, you should consider listing it here.  To start the listing process, click on the button below
 
Add a business
 

Other Pages about Gord Airport

Update a link
 
Copyright © AirNav, LLC. All rights reserved. Privacy Policy  Contact